Flag for Germany Weather past 2 weeks in Koblenz, Rhineland-Palatinate, Germany

Now
45 °F

Quite cool.


Feels Like: 38 °F
Forecast: 38 / 49 °F
Wind: 14 mph from West

Location: Buechel

Current Time: Dec 23, 2014 at 2:05:56 AM

Latest Report: Dec 23, 2014 at 1:20 AM


Visibility: 4 mi

Pressure: 30.15 "Hg

Humidity: 93%

Dew point: 43 °F

Location of KoblenzLocation

Historic Weather in Koblenz — Graph

°F

Koblenz temperature yesterday

Maximum temperature yesterday: 43 °F (at 5:20 PM)
Minimum temperature yesterday: 39 °F (at 12:20 AM)
Average temperature yesterday: 40 °F

Past Weeks' High & Low Weather Summary

 TemperatureHumidityPressure
High50 °F (Dec 18, 12:20 PM)100% (Dec 8, 12:20 AM)30.42 "Hg (Dec 8, 12:20 AM)
Low28 °F (Dec 15, 5:20 AM)81% (Dec 14, 12:20 PM)29.50 "Hg (Dec 12, 3:20 PM)
Average37 °F94%29.99 "Hg
* Reported Dec 8 12:20 AM — Dec 23 12:20 AM, Koblenz, Weather by CustomWeather, © 2014

Note: Actual official high and low records may vary slightly from our data, if they occured in-between our weather recording intervals... More about our weather records

Advertising

Koblenz weather history for previous 24 hours

 ConditionsComfort  
Time TempWeatherWind HumidityBarometerVisibility
12:20 AM
Dec 23
45 °FQuite cool.15 mph93%30.15 "Hg4 mi
11:20 PM
Dec 22
43 °FQuite cool.15 mph100%30.15 "Hg3 mi
10:20 PM43 °FQuite cool.16 mph100%30.15 "Hg2 mi
9:20 PM43 °FQuite cool.15 mph93%30.15 "Hg2 mi
8:20 PM43 °FQuite cool.16 mph93%30.15 "Hg1 mi
7:20 PM43 °FQuite cool.18 mph93%30.15 "Hg2 mi
6:20 PM43 °FQuite cool.17 mph93%30.15 "Hg1 mi
5:20 PM43 °FQuite cool.18 mph93%30.15 "Hg2 mi
4:20 PM41 °FQuite cool.17 mph100%30.15 "Hg1 mi
3:20 PM41 °FQuite cool.17 mph93%30.15 "Hg1 mi
2:20 PM41 °FQuite cool.18 mph93%30.15 "Hg2 mi
1:20 PM39 °FChilly.20 mph100%30.15 "Hg1 mi
12:20 PM39 °FChilly.20 mph100%30.18 "Hg2 mi
11:20 AM39 °FChilly.16 mph100%30.21 "Hg3 mi
10:20 AM39 °FChilly.18 mph93%30.21 "Hg3 mi
9:20 AM39 °FChilly.17 mph93%30.21 "Hg3 mi
8:20 AM39 °FChilly.17 mph93%30.21 "Hg3 mi
7:20 AM39 °FChilly.18 mph93%30.18 "Hg2 mi
6:20 AM39 °FChilly.17 mph93%30.21 "Hg1 mi
5:20 AM39 °FChilly.17 mph93%30.21 "Hg1 mi
4:20 AM39 °FChilly.20 mph93%30.21 "Hg1 mi
3:20 AM39 °FChilly.21 mph93%30.21 "Hg2 mi
2:20 AM39 °FChilly.20 mph93%30.24 "Hg2 mi
Weather by CustomWeather, © 2014

See weather overviewHow to use our weather pages